Location: ?ejtice
(49.7145°N, 15.1426°E)
Time: 00:40:22
(UTC+00:00)

Daily predictions for brighter satellites

Satellite Brightness Start Highest point End
(mag) Time Altitude Azimuth Time Altitude Azimuth Time Altitude Azimuth
SL-16 R/B 3.3 00:12:20 49° N 00:12:20 49° N 00:16:52 10° NNW
Cosmos 1943 Rocket 4.0 00:17:17 24° NNW 00:17:17 24° NNW 00:20:46 10° NNE
CZ-2D R/B 3.6 00:17:30 10° NNE 00:20:45 34° NE 00:20:45 34° NE
ATLAS 5 CENTAUR R/B 4.1 00:26:24 19° NE 00:26:24 19° NE 00:27:49 10° NE
Cosmos 2297 Rocket 3.4 00:25:11 10° NNW 00:28:49 37° N 00:28:49 37° N
Resurs 1-4 Rocket 3.3 00:31:29 10° NNE 00:34:54 40° NE 00:34:54 40° NE
Cosmos 2369 Rocket 3.9 00:41:05 25° NNW 00:41:05 25° NNW 00:44:58 10° NNE
Gbstr 26 Del rocket 4.5 00:44:53 73° NW 00:45:32 78° N 00:53:26 10° E
CZ-4C R/B 4.1 00:47:10 21° NW 00:49:24 26° N 00:55:00 10° NE
USA 267 3.9 00:49:19 10° ENE 00:54:57 42° ESE 00:54:57 42° ESE
Cosmos 1818 4.2 01:05:33 51° ENE 01:05:33 51° ENE 01:09:44 10° NE
SL-8 Rocket 4.4 01:07:19 10° NNW 01:12:13 53° NW 01:12:13 53° NW
Cosmos 2218 Rocket 4.2 01:18:34 10° NNW 01:24:06 61° NW 01:24:06 61° NW
Cosmos 2366 rocket 4.1 01:21:10 10° NNW 01:26:34 60° NW 01:26:34 60° NW
Cosmos 2227 Rocket 3.3 01:22:12 10° NNW 01:25:13 33° NW 01:25:13 33° NW
Cosmos 1992 Rocket 4.2 01:30:28 68° NNE 01:30:28 68° NNE 01:35:01 10° NNE
Cosmos 1656 3.7 01:30:38 71° E 01:30:38 71° E 01:35:55 10° NNE
USA 234 3.2 01:25:40 10° ESE 01:32:13 86° NNE 01:37:44 16° WNW
Lacrosse 5 3.1 01:32:48 32° ESE 01:32:48 32° ESE 01:36:51 10° ENE
Nadezhda 3 Rocket 4.5 01:33:54 37° SE 01:36:01 54° E 01:42:00 10° NNE
ADEOS II 2.0 01:33:23 10° NNE 01:38:28 83° NNE 01:38:28 83° NNE
CZ-4B R/B 3.5 01:36:10 10° NNE 01:40:47 74° N 01:40:47 74° N
SL-08 R/B 3.5 01:47:13 62° N 01:47:13 62° N 01:51:05 10° NNW
Cosmos 2181 Rocket 4.3 01:47:57 49° WNW 01:47:57 49° WNW 01:53:44 10° N
NOSS 2-2 (C) 4.5 01:42:40 10° NW 01:47:59 77° NE 01:55:26 10° SE
SL-08 R/B 4.4 01:42:15 10° NNW 01:48:39 72° W 01:49:27 64° SW
Cosmos 1633 Rocket 4.1 01:46:14 10° NNW 01:48:58 38° NNW 01:48:58 38° NNW
IDEFIX/ARIANE 42P 3.4 01:46:32 10° NNE 01:51:39 48° E 01:53:40 32° SSE
Cosmos 1328 Rocket 3.9 01:51:45 61° E 01:51:46 61° E 01:56:11 10° NNE
SL-16 R/B 4.1 01:57:26 20° WNW 01:57:26 20° WNW 01:59:53 10° NW
IRS-1C 4.1 01:49:46 10° NNE 01:55:09 82° ESE 01:55:57 65° S
Cosmos 2369 4.1 01:54:42 43° SSE 01:56:15 57° ESE 02:01:52 10° NE
Cosmos 1606 4.1 01:59:13 31° N 01:59:13 31° N 02:01:21 10° N
Cosmos 1151 Rocket 3.1 02:00:38 75° NE 02:00:38 75° NE 02:04:44 10° NNE
ATLAS CENTAUR R/B 4.4 01:44:15 10° W 02:00:34 54° N 02:06:33 10° ENE
ARIANE 5 R/B 2.6 01:55:37 10° NNE 02:00:46 72° ESE 02:01:51 54° SSE
IRS-1D 3.7 01:56:29 10° N 02:01:44 56° WNW 02:01:47 56° WNW
CZ-2D R/B 3.2 01:57:57 10° N 02:02:04 29° NW 02:02:04 29° NW
ATLAS 5 CENTAUR R/B 2.7 02:07:56 32° NW 02:08:12 32° NNW 02:12:37 10° NNE
CZ-4C R/B 4.3 02:09:00 18° SE 02:11:21 41° ENE 02:14:45 10° N
CBERS-1 4.3 02:09:00 10° N 02:13:53 46° WNW 02:13:59 46° WNW
Cosmos 2297 Rocket 4.2 02:09:42 10° NW 02:10:32 14° NW 02:10:32 14° NW
Resurs 1-4 Rocket 3.5 02:12:04 10° N 02:15:58 23° NW 02:15:58 23° NW
Cosmos 1933 3.7 02:18:15 54° NW 02:18:15 54° NW 02:21:45 10° N
Cosmos 2082 3.7 02:13:33 10° NW 02:19:06 54° WSW 02:20:23 44° SSW
Cosmos 2360 4.3 02:18:33 38° S 02:20:49 74° ESE 02:26:34 10° NNE
USA 305 3.2 02:22:42 52° SSE 02:23:02 54° SE 02:27:12 10° ENE
Meteor 1-26 Rocket 4.0 02:24:04 34° S 02:26:34 88° ESE 02:32:00 10° NNE
USA 306 3.1 02:26:37 53° S 02:27:06 57° SSE 02:31:17 10° ENE
CZ-2D R/B 3.4 02:23:39 10° NNE 02:27:51 87° WNW 02:28:45 55° SSW
X-37B 2.4 02:29:08 25° SE 02:29:08 25° SE 02:30:57 10° ESE
SJ 16-02 2.4 02:25:04 10° NNW 02:29:19 45° ENE 02:33:32 10° SE
Meteor 1-25 Rocket 4.3 02:25:03 10° NNW 02:30:43 54° W 02:33:00 34° SSW
Cosmos 389 Rocket 2.7 02:32:18 50° SSE 02:33:01 65° E 02:36:34 10° NNE
Gbstr 26 Del rocket 4.4 02:27:26 20° WNW 02:33:31 89° NNE 02:40:59 10° ESE
ASTEX 1 3.3 02:28:59 10° N 02:33:59 78° W 02:36:22 32° SSW
IRS-P3 4.4 02:29:06 10° N 02:34:13 48° WNW 02:35:28 40° WSW
Cosmos 1697 Rocket 2.6 02:32:33 41° SW 02:34:30 72° WNW 02:40:09 10° NNE
H-2A R/B 2.1 02:32:45 10° SSE 02:37:06 81° ENE 02:41:36 10° NNW
CZ-2C R/B 3.7 02:33:07 10° NNE 02:37:58 42° E 02:42:51 10° SSE
Cosmos 1980 Rocket 2.3 02:35:19 26° SSW 02:38:35 73° ESE 02:44:15 10° NNE
USA 267 3.3 02:32:18 10° ENE 02:38:51 78° NNW 02:42:17 31° WSW
CZ-4C R/B 4.4 02:34:29 10° NW 02:40:01 29° NNE 02:46:24 10° ENE
ERS-2 3.0 02:36:59 10° SE 02:40:32 50° ENE 02:44:06 10° N
Iridium 2 3.5 02:39:48 45° S 02:40:53 89° WSW 02:44:40 10° N
Cosmos 1602 4.0 02:39:55 10° NNW 02:43:13 46° WNW 02:43:13 46° WNW
Cosmos 2322 Rocket 4.4 02:40:08 10° SSE 02:44:26 23° E 02:48:46 10° NE
Cosmos 2263 Rocket 2.3 02:39:48 10° NNW 02:45:28 76° ENE 02:51:09 10° SE
Helios 1B 4.5 02:43:13 15° S 02:46:46 64° WSW 02:51:06 10° NNW
SL-8 R/B 3.7 02:46:00 40° WSW 02:47:30 60° SSW 02:52:11 10° ESE
Meteor 1-14 Rocket 4.1 02:41:55 10° NNW 02:47:33 67° W 02:53:01 10° S
SL-16 R/B 3.9 02:46:59 10° SSE 02:51:53 31° ESE 02:56:47 10° NE
ATLAS 2AS CENTAUR R/B 3.8 02:44:48 10° NW 02:52:13 48° NNE 02:59:05 10° ESE
USA 307 2.8 02:52:25 40° SW 02:53:53 79° SSE 02:58:09 10° ENE
Cosmos 1470 Rocket 4.2 02:51:22 10° NNW 02:55:21 33° W 02:55:25 33° W
Cosmos 1812 3.3 02:52:26 10° S 02:56:12 57° E 03:00:00 10° NNE
Cosmos 2227 4.1 02:50:45 10° NNW 02:56:26 87° WSW 03:02:04 10° SSE
Spot 4 Rocket 4.1 02:51:50 10° N 02:56:53 57° WNW 02:59:44 25° SW
USA 308 2.8 02:55:23 37° SW 02:56:59 82° SSE 03:01:16 10° ENE
Cosmos 1500 3.0 02:56:37 10° NNW 03:00:29 79° W 03:04:17 10° S
Cosmos 972 4.3 02:59:29 19° SSW 03:03:05 80° WNW 03:07:59 10° NNE
Landsat 5 3.7 03:00:48 10° S 03:05:14 54° W 03:09:40 10° NNW
Cosmos 1666 3.4 03:02:34 10° N 03:06:22 56° ENE 03:10:06 10° SSE
Meteor 2-6 Rocket 4.3 03:01:15 10° S 03:06:54 85° E 03:12:46 10° NNE
Meteor 1-5 Rocket 4.0 03:01:41 10° NNW 03:07:01 81° W 03:12:22 10° S
Cosmos 1934 Rocket 4.2 03:03:17 10° NNW 03:08:59 45° W 03:14:43 10° SSW
IRIDIUM 104 4.3 03:05:53 10° N 03:11:09 84° W 03:16:22 10° S
Cosmos 1238 Rocket 4.2 03:04:53 10° NNW 03:11:15 50° W 03:17:14 10° SSW
Cosmos 1782 3.5 03:10:11 29° WSW 03:11:25 35° WNW 03:15:10 10° N
ERBS 4.2 03:09:57 13° S 03:12:20 25° SE 03:15:10 10° ENE
Cosmos 1898 Rocket 3.6 03:08:53 10° NNW 03:14:10 79° ENE 03:19:27 10° SSE
Lacrosse 5 1.9 03:12:00 24° WSW 03:15:03 70° NNW 03:20:08 10° NE
USA 234 3.8 03:09:47 10° SSE 03:15:41 36° SW 03:21:38 10° WNW
ADEOS Rocket 3.2 03:08:52 10° SSE 03:15:45 89° W 03:21:57 10° NNW
CZ-4B R/B 1.7 03:12:48 10° SSE 03:15:53 63° ENE 03:19:06 10° N
CZ-2C R/B 3.2 03:13:07 10° N 03:16:40 41° WNW 03:18:32 23° SW
Cosmos 1515 Rocket 4.3 03:15:08 24° WSW 03:16:59 34° WNW 03:21:04 10° N
ADEOS II 3.7 03:14:18 10° NNW 03:17:42 18° NW 03:19:23 15° WNW
IRIDIUM 114 4.3 03:15:04 10° N 03:20:17 71° W 03:25:28 10° S
USA 276 2.1 03:21:38 27° W 03:23:16 86° N 03:26:29 10° E
USA 32 4.1 03:19:12 10° N 03:24:29 87° E 03:29:45 10° S
Cosmos 1153 Rocket 4.5 03:18:14 10° NNW 03:24:40 79° W 03:31:00 10° S
ADEOS 4.1 03:21:52 10° NNE 03:27:04 61° ESE 03:32:13 10° S
MSX 4.2 03:21:49 10° N 03:27:19 47° WNW 03:32:39 11° SW
Cosmos 44 3.1 03:24:49 17° SW 03:28:14 76° NW 03:32:57 10° NE
IRIDIUM 103 4.3 03:24:16 10° N 03:29:24 60° W 03:34:31 10° SSW
Cosmos 1707 Rocket 3.8 03:25:57 10° S 03:30:14 72° E 03:34:36 10° NNE
IDEFIX/ARIANE 42P 3.5 03:26:31 10° N 03:31:02 30° WNW 03:34:28 15° WSW
Cosmos 1605 Rocket 4.3 03:25:42 10° NNW 03:31:48 48° W 03:37:53 10° SSW
Cosmos 921 Rocket 2.9 03:27:48 11° SSW 03:31:49 66° WNW 03:36:00 10° NNE
Meteor 1-11 Rocket 3.7 03:26:19 10° NNW 03:32:10 78° W 03:37:51 10° S
Cosmos 2278 4.1 03:28:11 16° WSW 03:32:33 47° NW 03:38:05 10° NNE
Cosmos 2228 Rocket 3.5 03:31:11 11° SW 03:35:05 40° WNW 03:39:17 10° N
CZ-3B R/B 3.4 03:32:05 15° W 03:35:05 56° N 03:47:43 10° ENE
SAR-Lupe-4 3.5 03:33:58 10° SSE 03:37:34 83° WSW 03:41:12 10° NNW
Cosmos 1743 4.4 03:35:02 10° N 03:38:36 37° ENE 03:42:09 10° SE
ARIANE 5 R/B 3.9 03:35:39 10° N 03:39:21 20° WNW 03:42:11 13° W
Cosmos 1937 Rocket 3.4 03:38:06 10° NNW 03:43:17 84° WSW 03:48:25 10° SSE
ALOS 2.6 03:41:52 10° NNE 03:46:34 69° ESE 03:51:12 10° S
Cosmos 1733 Rocket 3.1 03:42:35 10° N 03:46:59 86° E 03:51:19 10° S
SKYMED 2 4.3 03:43:35 10° SSE 03:47:50 58° ENE 03:52:07 10° N
Meteor 1-27 Rocket 3.9 03:42:29 10° S 03:48:26 88° W 03:54:24 10° NNE
SAR-Lupe-1 4.0 03:46:22 10° S 03:49:53 62° WSW 03:53:27 10° NNW
Cosmos 1536 2.8 03:46:40 10° NNW 03:50:44 65° W 03:54:45 10° S
Cosmos 1869 Rocket 4.3 03:47:53 10° NNW 03:51:41 30° W 03:55:27 10° SSW
ATLAS 5 CENTAUR R/B 3.9 03:51:07 10° NW 03:54:20 18° N 03:57:53 10° NE
Cosmos 1484 Rocket 2.9 03:51:24 10° NNE 03:55:24 90° ESE 03:59:24 10° SSW
GENESIS II 4.3 03:52:20 10° SW 03:56:23 79° NW 04:00:27 10° NE
Cosmos 841 Rocket 4.3 03:52:13 10° S 03:57:18 55° ESE 04:02:27 10° NNE
Meteor 1-4 Rocket 2.9 03:54:02 10° SW 03:57:18 39° WNW 04:00:39 10° N
Cosmos 1725 Rocket 4.4 03:55:16 10° N 04:01:29 70° E 04:07:38 10° SSE
USA 305 3.3 03:58:55 10° W 04:03:07 56° NNW 04:07:19 10° ENE
Cosmos 1862 Rocket 3.7 03:59:39 10° S 04:04:03 80° E 04:08:26 10° NNE
X-37B 1.8 04:01:26 10° WSW 04:04:15 28° SSW 04:07:04 10° SE
Cosmos 1689 Rocket 2.0 04:01:24 10° S 04:04:21 71° WSW 04:07:20 10° NNW
Meteor 1-31 Rocket 2.7 04:02:20 10° NNE 04:06:10 85° WNW 04:10:00 10° SSW
Cosmos 2100 Rocket 4.1 04:00:12 10° NNW 04:06:31 62° W 04:12:46 10° S
USA 306 3.3 04:03:01 10° W 04:07:12 55° NNW 04:11:24 10° ENE
SJ 16-02 2.5 04:04:12 10° NW 04:07:37 22° W 04:11:01 10° SSW
Cosmos 1727 Rocket 4.3 04:01:38 10° SSW 04:07:47 50° WNW 04:13:56 10° N
Cosmos 1763 Rocket 3.6 04:02:38 10° SSW 04:07:57 70° WNW 04:13:15 10° NNE
PSLV R/B 4.5 04:04:53 10° N 04:08:30 28° WNW 04:12:05 10° WSW
Cosmos 1802 Rocket 4.0 04:02:42 10° NNW 04:08:54 77° W 04:15:07 10° S
Cosmos 2360 Rocket 3.0 04:07:03 10° S 04:12:35 56° ESE 04:18:07 10° NE
